Time,TemperatureF,DewpointF,PressureIn,WindDirection,WindDirectionDegrees,WindSpeedMPH,WindSpeedGustMPH,Humidity,HourlyPrecipIn,Conditions,Clouds,dailyrainin,SoftwareType,DateUTC
2013-05-02 00:01:00,53.1,30.5,28.44,ENE,70,3.0,8.0,42,0.00,,,4.80,WUHU216DAVISWMX,2013-05-02 04:01:00,
2013-05-02 00:06:00,52.9,30.3,28.44,East,80,4.0,8.0,42,0.00,,,4.80,WUHU216DAVISWMX,2013-05-02 04:06:00,
2013-05-02 00:11:00,53.0,31.0,28.44,SE,135,2.0,8.0,43,0.00,,,4.80,WUHU216DAVISWMX,2013-05-02 04:11:00,
2013-05-02 00:16:00,52.9,30.9,28.44,East,94,2.0,7.0,43,0.00,,,4.80,WUHU216DAVISWMX,2013-05-02 04:16:00,
2013-05-02 00:21:00,52.8,31.4,28.43,SE,128,4.0,13.0,44,0.00,,,4.80,WUHU216DAVISWMX,2013-05-02 04:21:00,
2013-05-02 00:26:00,52.8,30.8,28.43,ESE,102,0.0,14.0,43,0.00,,,4.80,WUHU216DAVISWMX,2013-05-02 04:26:00,
2013-05-02 00:31:00,52.7,31.3,28.43,East,94,1.0,14.0,44,0.00,,,4.80,WUHU216DAVISWMX,2013-05-02 04:31:00,
2013-05-02 00:36:00,52.7,31.8,28.43,ESE,109,0.0,11.0,45,0.00,,,4.80,WUHU216DAVISWMX,2013-05-02 04:36:00,
2013-05-02 00:41:00,52.7,31.8,28.43,East,82,6.0,13.0,45,0.00,,,4.80,WUHU216DAVISWMX,2013-05-02 04:41:00,
2013-05-02 00:46:00,52.5,31.7,28.44,East,79,3.0,13.0,45,0.00,,,4.80,WUHU216DAVISWMX,2013-05-02 04:46:00,
2013-05-02 00:51:00,52.4,31.6,28.44,East,93,4.0,11.0,45,0.00,,,4.80,WUHU216DAVISWMX,2013-05-02 04:51:00,
2013-05-02 00:56:00,52.3,32.0,28.43,ESE,118,0.0,10.0,46,0.00,,,4.80,WUHU216DAVISWMX,2013-05-02 04:56:00,
2013-05-02 01:01:00,52.0,31.8,28.43,East,84,0.0,10.0,46,0.00,,,4.80,WUHU216DAVISWMX,2013-05-02 05:01:00,
2013-05-02 01:06:00,51.8,31.6,28.44,ENE,69,0.0,8.0,46,0.00,,,4.80,WUHU216DAVISWMX,2013-05-02 05:06:00,
2013-05-02 01:11:00,51.9,31.7,28.44,ENE,78,0.0,7.0,46,0.00,,,4.80,WUHU216DAVISWMX,2013-05-02 05:11:00,
2013-05-02 01:16:00,51.5,32.4,28.44,East,86,2.0,8.0,48,0.00,,,4.80,WUHU216DAVISWMX,2013-05-02 05:16:00,
2013-05-02 01:21:00,51.3,32.2,28.43,NE,48,1.0,8.0,48,0.00,,,4.80,WUHU216DAVISWMX,2013-05-02 05:21:00,
2013-05-02 01:26:00,51.3,32.2,28.43,ESE,118,0.0,16.0,48,0.00,,,4.80,WUHU216DAVISWMX,2013-05-02 05:26:00,
2013-05-02 01:31:00,51.3,32.2,28.43,ENE,77,0.0,16.0,48,0.00,,,4.80,WUHU216DAVISWMX,2013-05-02 05:31:00,
2013-05-02 01:36:00,51.1,32.0,28.43,East,85,1.0,10.0,48,0.00,,,4.80,WUHU216DAVISWMX,2013-05-02 05:36:00,
2013-05-02 01:41:00,51.0,32.5,28.43,ENE,78,0.0,10.0,49,0.00,,,4.80,WUHU216DAVISWMX,2013-05-02 05:41:00,
2013-05-02 01:46:00,50.8,32.3,28.43,East,99,13.0,13.0,49,0.00,,,4.80,WUHU216DAVISWMX,2013-05-02 05:46:00,
2013-05-02 01:51:00,50.8,32.3,28.43,SE,124,3.0,13.0,49,0.00,,,4.80,WUHU216DAVISWMX,2013-05-02 05:51:00,
2013-05-02 01:56:00,50.7,32.2,28.42,ESE,106,2.0,12.0,49,0.00,,,4.80,WUHU216DAVISWMX,2013-05-02 05:56:00,
2013-05-02 02:01:00,50.7,32.7,28.42,ENE,72,6.0,14.0,50,0.00,,,4.80,WUHU216DAVISWMX,2013-05-02 06:01:00,
2013-05-02 02:06:00,50.6,32.1,28.43,SSE,159,0.0,14.0,49,0.00,,,4.80,WUHU216DAVISWMX,2013-05-02 06:06:00,
2013-05-02 02:11:00,50.6,32.1,28.42,ESE,117,0.0,10.0,49,0.00,,,4.80,WUHU216DAVISWMX,2013-05-02 06:11:00,
2013-05-02 02:16:00,50.6,32.6,28.43,East,87,0.0,10.0,50,0.00,,,4.80,WUHU216DAVISWMX,2013-05-02 06:16:00,
2013-05-02 02:21:00,50.2,32.8,28.43,ESE,108,0.0,6.0,51,0.00,,,4.80,WUHU216DAVISWMX,2013-05-02 06:21:00,
2013-05-02 02:26:00,50.1,32.2,28.43,SSE,163,0.0,7.0,50,0.00,,,4.80,WUHU216DAVISWMX,2013-05-02 06:26:00,
2013-05-02 02:31:00,50.0,32.6,28.43,ENE,77,0.0,7.0,51,0.00,,,4.80,WUHU216DAVISWMX,2013-05-02 06:31:00,
2013-05-02 02:36:00,49.9,32.5,28.43,ENE,77,0.0,4.0,51,0.00,,,4.80,WUHU216DAVISWMX,2013-05-02 06:36:00,
2013-05-02 02:41:00,49.7,32.3,28.43,ENE,76,4.0,4.0,51,0.00,,,4.80,WUHU216DAVISWMX,2013-05-02 06:41:00,
2013-05-02 02:46:00,49.6,32.2,28.43,East,86,4.0,9.0,51,0.00,,,4.80,WUHU216DAVISWMX,2013-05-02 06:46:00,
2013-05-02 02:51:00,49.7,32.3,28.43,ESE,120,0.0,9.0,51,0.00,,,4.80,WUHU216DAVISWMX,2013-05-02 06:51:00,
2013-05-02 02:56:00,49.7,32.3,28.43,SE,139,4.0,9.0,51,0.00,,,4.80,WUHU216DAVISWMX,2013-05-02 06:56:00,
2013-05-02 03:01:00,49.4,32.5,28.43,East,88,8.0,10.0,52,0.00,,,4.80,WUHU216DAVISWMX,2013-05-02 07:01:00,
2013-05-02 03:06:00,49.3,32.4,28.43,East,97,6.0,10.0,52,0.00,,,4.80,WUHU216DAVISWMX,2013-05-02 07:06:00,
2013-05-02 03:11:00,49.0,32.1,28.43,ESE,104,0.0,7.0,52,0.00,,,4.80,WUHU216DAVISWMX,2013-05-02 07:11:00,
2013-05-02 03:16:00,48.7,32.3,28.43,East,96,7.0,8.0,53,0.00,,,4.80,WUHU216DAVISWMX,2013-05-02 07:16:00,
2013-05-02 03:21:00,48.4,32.5,28.43,ESE,111,5.0,11.0,54,0.00,,,4.80,WUHU216DAVISWMX,2013-05-02 07:21:00,
2013-05-02 03:26:00,48.3,33.4,28.43,East,88,3.0,11.0,56,0.00,,,4.80,WUHU216DAVISWMX,2013-05-02 07:26:00,
2013-05-02 03:31:00,48.0,33.1,28.43,ESE,109,4.0,13.0,56,0.00,,,4.80,WUHU216DAVISWMX,2013-05-02 07:31:00,
2013-05-02 03:36:00,47.7,33.3,28.43,East,101,4.0,13.0,57,0.00,,,4.80,WUHU216DAVISWMX,2013-05-02 07:36:00,
2013-05-02 03:41:00,47.4,33.0,28.43,East,81,3.0,9.0,57,0.00,,,4.80,WUHU216DAVISWMX,2013-05-02 07:41:00,
2013-05-02 03:46:00,47.1,32.7,28.43,ENE,71,2.0,8.0,57,0.00,,,4.80,WUHU216DAVISWMX,2013-05-02 07:46:00,
2013-05-02 03:51:00,46.9,32.5,28.43,SE,130,0.0,7.0,57,0.00,,,4.80,WUHU216DAVISWMX,2013-05-02 07:51:00,
2013-05-02 03:56:00,46.7,32.8,28.43,East,97,3.0,7.0,58,0.00,,,4.80,WUHU216DAVISWMX,2013-05-02 07:56:00,
2013-05-02 04:01:00,46.6,32.7,28.43,ENE,72,5.0,7.0,58,0.00,,,4.80,WUHU216DAVISWMX,2013-05-02 08:01:00,
2013-05-02 04:06:00,46.6,33.1,28.44,East,79,6.0,9.0,59,0.00,,,4.80,WUHU216DAVISWMX,2013-05-02 08:06:00,
2013-05-02 04:11:00,46.4,33.3,28.43,East,89,6.0,9.0,60,0.00,,,4.80,WUHU216DAVISWMX,2013-05-02 08:11:00,
2013-05-02 04:16:00,46.5,33.4,28.44,ESE,111,0.0,9.0,60,0.00,,,4.80,WUHU216DAVISWMX,2013-05-02 08:16:00,
2013-05-02 04:21:00,46.2,33.2,28.44,East,92,2.0,9.0,60,0.00,,,4.80,WUHU216DAVISWMX,2013-05-02 08:21:00,
2013-05-02 04:26:00,45.7,33.1,28.44,East,97,4.0,5.0,61,0.00,,,4.80,WUHU216DAVISWMX,2013-05-02 08:26:00,
2013-05-02 04:31:00,45.6,33.8,28.44,ENE,68,1.0,5.0,63,0.00,,,4.80,WUHU216DAVISWMX,2013-05-02 08:31:00,
2013-05-02 04:36:00,45.5,33.7,28.44,East,89,3.0,6.0,63,0.00,,,4.80,WUHU216DAVISWMX,2013-05-02 08:36:00,
2013-05-02 04:41:00,45.3,33.9,28.44,East,80,7.0,7.0,64,0.00,,,4.80,WUHU216DAVISWMX,2013-05-02 08:41:00,
2013-05-02 04:46:00,45.3,34.3,28.45,East,93,5.0,7.0,65,0.00,,,4.80,WUHU216DAVISWMX,2013-05-02 08:46:00,
2013-05-02 04:51:00,45.2,34.6,28.44,East,90,3.0,8.0,66,0.00,,,4.80,WUHU216DAVISWMX,2013-05-02 08:51:00,
2013-05-02 04:56:00,45.2,34.6,28.44,ENE,74,0.0,8.0,66,0.00,,,4.80,WUHU216DAVISWMX,2013-05-02 08:56:00,
2013-05-02 05:01:00,45.1,34.9,28.44,East,83,4.0,7.0,67,0.00,,,4.80,WUHU216DAVISWMX,2013-05-02 09:01:00,
2013-05-02 05:06:00,44.9,35.1,28.44,East,83,0.0,6.0,68,0.00,,,4.80,WUHU216DAVISWMX,2013-05-02 09:06:00,
2013-05-02 05:11:00,44.9,35.1,28.44,East,97,0.0,7.0,68,0.00,,,4.80,WUHU216DAVISWMX,2013-05-02 09:11:00,
2013-05-02 05:16:00,44.6,34.8,28.44,East,86,0.0,7.0,68,0.00,,,4.80,WUHU216DAVISWMX,2013-05-02 09:16:00,
2013-05-02 05:21:00,44.3,34.9,28.44,East,85,0.0,2.0,69,0.00,,,4.80,WUHU216DAVISWMX,2013-05-02 09:21:00,
2013-05-02 05:26:00,44.2,35.1,28.44,East,85,0.0,2.0,70,0.00,,,4.80,WUHU216DAVISWMX,2013-05-02 09:26:00,
2013-05-02 05:31:00,44.2,35.1,28.43,East,85,0.0,0.0,70,0.00,,,4.80,WUHU216DAVISWMX,2013-05-02 09:31:00,
2013-05-02 05:36:00,44.3,35.6,28.43,East,89,0.0,5.0,71,0.00,,,4.80,WUHU216DAVISWMX,2013-05-02 09:36:00,
2013-05-02 05:41:00,44.3,35.6,28.43,East,89,1.0,5.0,71,0.00,,,4.80,WUHU216DAVISWMX,2013-05-02 09:41:00,
2013-05-02 05:46:00,44.3,35.6,28.44,East,89,0.0,4.0,71,0.00,,,4.80,WUHU216DAVISWMX,2013-05-02 09:46:00,
2013-05-02 05:51:00,44.3,35.6,28.43,East,89,4.0,4.0,71,0.00,,,4.80,WUHU216DAVISWMX,2013-05-02 09:51:00,
2013-05-02 05:56:00,44.2,35.5,28.44,East,89,0.0,4.0,71,0.00,,,4.80,WUHU216DAVISWMX,2013-05-02 09:56:00,
2013-05-02 06:01:00,43.9,35.5,28.44,East,89,0.0,3.0,72,0.00,,,4.80,WUHU216DAVISWMX,2013-05-02 10:01:00,
2013-05-02 06:06:00,43.7,35.7,28.44,East,89,0.0,4.0,73,0.00,,,4.80,WUHU216DAVISWMX,2013-05-02 10:06:00,
2013-05-02 06:11:00,43.6,35.2,28.43,East,89,0.0,4.0,72,0.00,,,4.80,WUHU216DAVISWMX,2013-05-02 10:11:00,
2013-05-02 06:16:00,43.7,36.0,28.44,East,89,0.0,1.0,74,0.00,,,4.80,WUHU216DAVISWMX,2013-05-02 10:16:00,
2013-05-02 06:21:00,43.5,35.8,28.44,East,89,0.0,2.0,74,0.00,,,4.80,WUHU216DAVISWMX,2013-05-02 10:21:00,
2013-05-02 06:26:00,43.3,35.6,28.44,East,89,2.0,3.0,74,0.00,,,4.80,WUHU216DAVISWMX,2013-05-02 10:26:00,
2013-05-02 06:31:00,43.2,35.9,28.44,East,89,0.0,4.0,75,0.00,,,4.80,WUHU216DAVISWMX,2013-05-02 10:31:00,
2013-05-02 06:37:00,43.2,35.9,28.44,East,89,0.0,4.0,75,0.00,,,4.80,WUHU216DAVISWMX,2013-05-02 10:37:00,
2013-05-02 06:42:00,43.3,36.0,28.44,East,83,0.0,4.0,75,0.00,,,4.80,WUHU216DAVISWMX,2013-05-02 10:42:00,
2013-05-02 06:47:00,43.3,36.0,28.45,East,83,2.0,4.0,75,0.00,,,4.80,WUHU216DAVISWMX,2013-05-02 10:47:00,
2013-05-02 06:52:00,43.5,36.2,28.45,East,83,1.0,4.0,75,0.00,,,4.80,WUHU216DAVISWMX,2013-05-02 10:52:00,
2013-05-02 06:57:00,43.5,36.2,28.44,East,90,0.0,5.0,75,0.00,,,4.80,WUHU216DAVISWMX,2013-05-02 10:57:00,
2013-05-02 07:02:00,43.4,36.1,28.45,East,90,0.0,5.0,75,0.00,,,4.80,WUHU216DAVISWMX,2013-05-02 11:02:00,
2013-05-02 07:07:00,43.5,36.2,28.45,East,90,0.0,5.0,75,0.00,,,4.80,WUHU216DAVISWMX,2013-05-02 11:07:00,
2013-05-02 07:12:00,43.6,36.3,28.45,East,90,4.0,4.0,75,0.00,,,4.80,WUHU216DAVISWMX,2013-05-02 11:12:00,
2013-05-02 07:17:00,43.8,36.5,28.45,East,95,3.0,6.0,75,0.00,,,4.80,WUHU216DAVISWMX,2013-05-02 11:17:00,
2013-05-02 07:22:00,43.9,36.5,28.44,East,97,0.0,6.0,75,0.00,,,4.80,WUHU216DAVISWMX,2013-05-02 11:22:00,
2013-05-02 07:27:00,44.4,36.7,28.45,ESE,108,1.0,8.0,74,0.00,,,4.80,WUHU216DAVISWMX,2013-05-02 11:27:00,
2013-05-02 07:32:00,44.7,36.7,28.45,ESE,120,2.0,8.0,73,0.00,,,4.80,WUHU216DAVISWMX,2013-05-02 11:32:00,
2013-05-02 07:37:00,44.8,36.7,28.45,SE,130,0.0,9.0,73,0.00,,,4.80,WUHU216DAVISWMX,2013-05-02 11:37:00,
2013-05-02 07:42:00,45.2,36.8,28.45,East,90,5.0,9.0,72,0.00,,,4.80,WUHU216DAVISWMX,2013-05-02 11:42:00,
2013-05-02 07:47:00,45.6,37.2,28.45,ESE,109,4.0,10.0,72,0.00,,,4.80,WUHU216DAVISWMX,2013-05-02 11:47:00,
2013-05-02 07:52:00,45.8,37.0,28.45,SE,124,6.0,13.0,71,0.00,,,4.80,WUHU216DAVISWMX,2013-05-02 11:52:00,
2013-05-02 07:57:00,46.2,37.4,28.45,East,83,6.0,13.0,71,0.00,,,4.80,WUHU216DAVISWMX,2013-05-02 11:57:00,
2013-05-02 08:02:00,46.3,36.8,28.45,ESE,103,4.0,11.0,69,0.00,,,4.80,WUHU216DAVISWMX,2013-05-02 12:02:00,
2013-05-02 08:07:00,46.7,36.8,28.45,SE,128,5.0,14.0,68,0.00,,,4.80,WUHU216DAVISWMX,2013-05-02 12:07:00,
2013-05-02 08:12:00,46.9,36.6,28.37,East,92,10.0,14.0,67,0.00,,,4.80,WUHU216DAVISWMX,2013-05-02 12:12:00,
2013-05-02 08:17:00,47.1,36.8,28.45,East,99,7.0,14.0,67,0.00,,,4.80,WUHU216DAVISWMX,2013-05-02 12:17:00,
2013-05-02 08:22:00,47.5,36.4,28.42,East,94,0.0,14.0,65,0.00,,,4.80,WUHU216DAVISWMX,2013-05-02 12:22:00,
2013-05-02 08:27:00,47.6,36.5,28.43,SSE,165,0.0,13.0,65,0.00,,,4.80,WUHU216DAVISWMX,2013-05-02 12:27:00,
2013-05-02 08:32:00,48.1,36.6,28.41,East,89,10.0,14.0,64,0.00,,,4.80,WUHU216DAVISWMX,2013-05-02 12:32:00,
2013-05-02 08:37:00,48.5,36.6,28.45,East,80,7.0,14.0,63,0.00,,,4.80,WUHU216DAVISWMX,2013-05-02 12:37:00,
2013-05-02 08:42:00,48.7,35.9,28.45,ESE,115,6.0,13.0,61,0.00,,,4.80,WUHU216DAVISWMX,2013-05-02 12:42:00,
2013-05-02 08:47:00,49.2,36.4,28.43,SE,130,6.0,14.0,61,0.00,,,4.80,WUHU216DAVISWMX,2013-05-02 12:47:00,
2013-05-02 08:52:00,49.2,36.4,28.34,SE,127,0.0,14.0,61,0.00,,,4.80,WUHU216DAVISWMX,2013-05-02 12:52:00,
2013-05-02 08:57:00,49.6,36.4,28.46,SE,125,9.0,14.0,60,0.00,,,4.80,WUHU216DAVISWMX,2013-05-02 12:57:00,
2013-05-02 09:02:00,49.9,35.3,28.45,East,81,7.0,16.0,57,0.00,,,4.80,WUHU216DAVISWMX,2013-05-02 13:02:00,
2013-05-02 09:07:00,50.2,36.1,28.46,ESE,123,7.0,16.0,58,0.00,,,4.80,WUHU216DAVISWMX,2013-05-02 13:07:00,
2013-05-02 09:12:00,50.3,35.7,28.46,East,99,12.0,16.0,57,0.00,,,4.80,WUHU216DAVISWMX,2013-05-02 13:12:00,
2013-05-02 09:17:00,50.5,35.9,28.46,SE,127,4.0,15.0,57,0.00,,,4.80,WUHU216DAVISWMX,2013-05-02 13:17:00,
2013-05-02 09:22:00,51.1,36.5,28.45,SSE,156,6.0,12.0,57,0.00,,,4.80,WUHU216DAVISWMX,2013-05-02 13:22:00,
2013-05-02 09:27:00,51.3,35.2,28.46,ENE,67,6.0,13.0,54,0.00,,,4.80,WUHU216DAVISWMX,2013-05-02 13:27:00,
2013-05-02 09:32:00,51.6,35.0,28.46,ESE,104,0.0,14.0,53,0.00,,,4.80,WUHU216DAVISWMX,2013-05-02 13:32:00,
2013-05-02 09:37:00,52.1,35.0,28.46,ESE,107,1.0,15.0,52,0.00,,,4.80,WUHU216DAVISWMX,2013-05-02 13:37:00,
2013-05-02 09:42:00,52.6,35.0,28.46,ESE,115,4.0,15.0,51,0.00,,,4.80,WUHU216DAVISWMX,2013-05-02 13:42:00,
2013-05-02 09:47:00,53.2,34.5,28.46,SE,126,7.0,13.0,49,0.00,,,4.80,WUHU216DAVISWMX,2013-05-02 13:47:00,
2013-05-02 09:52:00,53.4,33.0,28.46,ESE,116,5.0,13.0,46,0.00,,,4.80,WUHU216DAVISWMX,2013-05-02 13:52:00,
2013-05-02 09:57:00,53.8,32.8,28.46,ESE,108,0.0,11.0,45,0.00,,,4.80,WUHU216DAVISWMX,2013-05-02 13:57:00,
2013-05-02 10:02:00,54.2,32.6,28.46,ESE,121,3.0,12.0,44,0.00,,,4.80,WUHU216DAVISWMX,2013-05-02 14:02:00,
2013-05-02 10:07:00,54.7,32.5,28.46,ENE,62,1.0,12.0,43,0.00,,,4.80,WUHU216DAVISWMX,2013-05-02 14:07:00,
2013-05-02 10:12:00,55.1,31.0,28.46,SE,125,2.0,11.0,40,0.00,,,4.80,WUHU216DAVISWMX,2013-05-02 14:12:00,
2013-05-02 10:17:00,55.4,33.1,28.46,ESE,113,2.0,10.0,43,0.00,,,4.80,WUHU216DAVISWMX,2013-05-02 14:17:00,
2013-05-02 10:22:00,55.7,29.6,28.46,ENE,65,5.0,14.0,37,0.00,,,4.80,WUHU216DAVISWMX,2013-05-02 14:22:00,
2013-05-02 10:27:00,56.1,30.0,28.46,East,100,2.0,14.0,37,0.00,,,4.80,WUHU216DAVISWMX,2013-05-02 14:27:00,
2013-05-02 10:32:00,56.1,29.3,28.46,SE,133,9.0,15.0,36,0.00,,,4.80,WUHU216DAVISWMX,2013-05-02 14:32:00,
2013-05-02 10:37:00,56.0,29.2,28.46,ESE,118,13.0,16.0,36,0.00,,,4.80,WUHU216DAVISWMX,2013-05-02 14:37:00,
2013-05-02 10:42:00,55.8,27.6,28.46,SE,134,9.0,16.0,34,0.00,,,4.80,WUHU216DAVISWMX,2013-05-02 14:42:00,
2013-05-02 10:47:00,56.0,28.5,28.46,SE,140,11.0,16.0,35,0.00,,,4.80,WUHU216DAVISWMX,2013-05-02 14:47:00,
2013-05-02 10:52:00,56.5,28.2,28.46,SE,131,5.0,16.0,34,0.00,,,4.80,WUHU216DAVISWMX,2013-05-02 14:52:00,
2013-05-02 10:57:00,56.8,31.9,28.46,SE,129,8.0,14.0,39,0.00,,,4.80,WUHU216DAVISWMX,2013-05-02 14:57:00,
2013-05-02 11:02:00,57.0,32.1,28.46,SSE,159,6.0,17.0,39,0.00,,,4.80,WUHU216DAVISWMX,2013-05-02 15:02:00,
2013-05-02 11:07:00,57.1,32.2,28.46,SE,145,0.0,17.0,39,0.00,,,4.80,WUHU216DAVISWMX,2013-05-02 15:07:00,
2013-05-02 11:12:00,57.4,31.8,28.45,SSE,164,1.0,14.0,38,0.00,,,4.80,WUHU216DAVISWMX,2013-05-02 15:12:00,
2013-05-02 11:17:00,57.6,30.6,28.45,SE,127,11.0,14.0,36,0.00,,,4.80,WUHU216DAVISWMX,2013-05-02 15:17:00,
2013-05-02 11:22:00,57.5,31.2,28.45,East,98,8.0,12.0,37,0.00,,,4.80,WUHU216DAVISWMX,2013-05-02 15:22:00,
2013-05-02 11:27:00,58.0,31.0,28.45,SE,127,14.0,16.0,36,0.00,,,4.80,WUHU216DAVISWMX,2013-05-02 15:27:00,
2013-05-02 11:32:00,58.1,31.8,28.45,South,170,3.0,16.0,37,0.00,,,4.80,WUHU216DAVISWMX,2013-05-02 15:32:00,
2013-05-02 11:37:00,58.4,31.3,28.45,East,99,7.0,16.0,36,0.00,,,4.80,WUHU216DAVISWMX,2013-05-02 15:37:00,
2013-05-02 11:42:00,58.8,32.4,28.45,SE,127,4.0,16.0,37,0.00,,,4.80,WUHU216DAVISWMX,2013-05-02 15:42:00,
2013-05-02 11:47:00,59.0,31.2,28.44,ESE,120,3.0,13.0,35,0.00,,,4.80,WUHU216DAVISWMX,2013-05-02 15:47:00,
2013-05-02 11:52:00,59.1,30.5,28.44,SE,126,7.0,12.0,34,0.00,,,4.80,WUHU216DAVISWMX,2013-05-02 15:52:00,
2013-05-02 11:57:00,59.3,30.0,28.44,ESE,113,13.0,13.0,33,0.00,,,4.80,WUHU216DAVISWMX,2013-05-02 15:57:00,
2013-05-02 12:02:00,59.4,30.8,28.44,SSE,147,15.0,15.0,34,0.00,,,4.80,WUHU216DAVISWMX,2013-05-02 16:02:00,
2013-05-02 12:07:00,59.6,30.2,28.44,SE,124,6.0,20.0,33,0.00,,,4.80,WUHU216DAVISWMX,2013-05-02 16:07:00,
2013-05-02 12:12:00,60.1,30.7,28.44,SE,140,16.0,20.0,33,0.00,,,4.80,WUHU216DAVISWMX,2013-05-02 16:12:00,
2013-05-02 12:17:00,60.0,30.6,28.44,ESE,108,5.0,17.0,33,0.00,,,4.80,WUHU216DAVISWMX,2013-05-02 16:17:00,
2013-05-02 12:22:00,60.2,29.2,28.43,SSE,149,9.0,16.0,31,0.00,,,4.80,WUHU216DAVISWMX,2013-05-02 16:22:00,
2013-05-02 12:27:00,60.5,29.5,28.43,East,99,0.0,15.0,31,0.00,,,4.80,WUHU216DAVISWMX,2013-05-02 16:27:00,
2013-05-02 12:32:00,60.8,32.0,28.43,East,82,4.0,16.0,34,0.00,,,4.80,WUHU216DAVISWMX,2013-05-02 16:32:00,
2013-05-02 12:37:00,61.3,30.2,28.43,SE,138,8.0,16.0,31,0.00,,,4.80,WUHU216DAVISWMX,2013-05-02 16:37:00,
2013-05-02 12:42:00,61.6,29.6,28.43,SE,135,8.0,18.0,30,0.00,,,4.80,WUHU216DAVISWMX,2013-05-02 16:42:00,
2013-05-02 12:47:00,61.6,28.8,28.42,SE,139,4.0,18.0,29,0.00,,,4.80,WUHU216DAVISWMX,2013-05-02 16:47:00,
2013-05-02 12:52:00,62.3,30.3,28.42,SE,144,6.0,14.0,30,0.00,,,4.80,WUHU216DAVISWMX,2013-05-02 16:52:00,
2013-05-02 12:57:00,62.5,30.4,28.42,East,96,8.0,15.0,30,0.00,,,4.80,WUHU216DAVISWMX,2013-05-02 16:57:00,
2013-05-02 13:02:00,62.4,31.9,28.42,ESE,103,8.0,16.0,32,0.00,,,4.80,WUHU216DAVISWMX,2013-05-02 17:02:00,
2013-05-02 13:07:00,62.4,29.5,28.42,South,174,5.0,16.0,29,0.00,,,4.80,WUHU216DAVISWMX,2013-05-02 17:07:00,
2013-05-02 13:12:00,62.6,28.0,28.42,ESE,123,3.0,15.0,27,0.00,,,4.80,WUHU216DAVISWMX,2013-05-02 17:12:00,
2013-05-02 13:17:00,62.9,29.9,28.42,ESE,113,8.0,16.0,29,0.00,,,4.80,WUHU216DAVISWMX,2013-05-02 17:17:00,
2013-05-02 13:22:00,63.2,28.5,28.42,ESE,106,19.0,20.0,27,0.00,,,4.80,WUHU216DAVISWMX,2013-05-02 17:22:00,
2013-05-02 13:27:00,62.6,28.0,28.42,SE,126,9.0,20.0,27,0.00,,,4.80,WUHU216DAVISWMX,2013-05-02 17:27:00,
2013-05-02 13:32:00,62.9,28.2,28.42,East,86,16.0,18.0,27,0.00,,,4.80,WUHU216DAVISWMX,2013-05-02 17:32:00,
2013-05-02 13:37:00,62.8,28.1,28.42,ESE,115,14.0,21.0,27,0.00,,,4.80,WUHU216DAVISWMX,2013-05-02 17:37:00,
2013-05-02 13:43:00,62.9,28.2,28.42,ENE,67,7.0,21.0,27,0.00,,,4.80,WUHU216DAVISWMX,2013-05-02 17:43:00,
2013-05-02 13:48:00,63.4,28.7,28.42,East,96,13.0,18.0,27,0.00,,,4.80,WUHU216DAVISWMX,2013-05-02 17:48:00,
2013-05-02 13:53:00,63.1,28.4,28.42,ESE,107,7.0,21.0,27,0.00,,,4.80,WUHU216DAVISWMX,2013-05-02 17:53:00,
2013-05-02 13:58:00,63.2,28.5,28.42,ESE,108,6.0,21.0,27,0.00,,,4.80,WUHU216DAVISWMX,2013-05-02 17:58:00,
2013-05-02 14:03:00,63.4,26.8,28.41,East,90,9.0,17.0,25,0.00,,,4.80,WUHU216DAVISWMX,2013-05-02 18:03:00,
2013-05-02 14:08:00,63.4,28.7,28.41,East,98,14.0,22.0,27,0.00,,,4.80,WUHU216DAVISWMX,2013-05-02 18:08:00,
2013-05-02 14:13:00,63.2,28.5,28.42,East,95,13.0,22.0,27,0.00,,,4.80,WUHU216DAVISWMX,2013-05-02 18:13:00,
2013-05-02 14:18:00,63.2,28.5,28.41,ESE,113,13.0,23.0,27,0.00,,,4.80,WUHU216DAVISWMX,2013-05-02 18:18:00,
2013-05-02 14:23:00,63.5,28.7,28.41,ESE,110,13.0,23.0,27,0.00,,,4.80,WUHU216DAVISWMX,2013-05-02 18:23:00,
2013-05-02 14:28:00,63.9,29.1,28.41,East,94,12.0,19.0,27,0.00,,,4.80,WUHU216DAVISWMX,2013-05-02 18:28:00,
2013-05-02 14:33:00,63.7,29.8,28.41,ESE,117,11.0,20.0,28,0.00,,,4.80,WUHU216DAVISWMX,2013-05-02 18:33:00,
2013-05-02 14:38:00,63.8,33.2,28.41,ESE,104,17.0,25.0,32,0.00,,,4.80,WUHU216DAVISWMX,2013-05-02 18:38:00,
2013-05-02 14:43:00,63.7,30.6,28.40,SE,135,13.0,25.0,29,0.00,,,4.80,WUHU216DAVISWMX,2013-05-02 18:43:00,
2013-05-02 14:48:00,63.9,30.8,28.40,SE,129,13.0,22.0,29,0.00,,,4.80,WUHU216DAVISWMX,2013-05-02 18:48:00,
2013-05-02 14:53:00,64.0,30.9,28.40,East,92,11.0,22.0,29,0.00,,,4.80,WUHU216DAVISWMX,2013-05-02 18:53:00,
2013-05-02 14:58:00,64.2,29.3,28.40,ESE,111,16.0,19.0,27,0.00,,,4.80,WUHU216DAVISWMX,2013-05-02 18:58:00,
2013-05-02 15:03:00,64.0,31.7,28.40,ENE,64,14.0,23.0,30,0.00,,,4.80,WUHU216DAVISWMX,2013-05-02 19:03:00,
2013-05-02 15:08:00,63.9,30.8,28.40,ESE,108,18.0,23.0,29,0.00,,,4.80,WUHU216DAVISWMX,2013-05-02 19:08:00,
2013-05-02 15:13:00,64.0,30.9,28.39,ESE,107,16.0,23.0,29,0.00,,,4.80,WUHU216DAVISWMX,2013-05-02 19:13:00,
2013-05-02 15:18:00,64.0,30.9,28.39,East,98,9.0,25.0,29,0.00,,,4.80,WUHU216DAVISWMX,2013-05-02 19:18:00,
2013-05-02 15:23:00,64.2,33.5,28.39,ESE,112,7.0,25.0,32,0.00,,,4.80,WUHU216DAVISWMX,2013-05-02 19:23:00,
2013-05-02 15:28:00,64.5,33.8,28.39,ESE,104,20.0,20.0,32,0.00,,,4.80,WUHU216DAVISWMX,2013-05-02 19:28:00,
2013-05-02 15:33:00,64.5,34.5,28.39,ESE,121,15.0,20.0,33,0.00,,,4.80,WUHU216DAVISWMX,2013-05-02 19:33:00,
2013-05-02 15:38:00,64.6,32.3,28.38,ESE,114,12.0,20.0,30,0.00,,,4.80,WUHU216DAVISWMX,2013-05-02 19:38:00,
2013-05-02 15:43:00,64.5,32.2,28.38,SSE,158,12.0,20.0,30,0.00,,,4.80,WUHU216DAVISWMX,2013-05-02 19:43:00,
2013-05-02 15:48:00,64.8,32.4,28.38,SSE,156,7.0,22.0,30,0.00,,,4.80,WUHU216DAVISWMX,2013-05-02 19:48:00,
2013-05-02 15:53:00,64.8,32.4,28.38,SE,143,11.0,23.0,30,0.00,,,4.80,WUHU216DAVISWMX,2013-05-02 19:53:00,
2013-05-02 15:58:00,64.8,31.6,28.38,East,96,14.0,23.0,29,0.00,,,4.80,WUHU216DAVISWMX,2013-05-02 19:58:00,
2013-05-02 16:03:00,65.1,30.1,28.38,SSE,161,13.0,23.0,27,0.00,,,4.80,WUHU216DAVISWMX,2013-05-02 20:03:00,
2013-05-02 16:08:00,64.5,29.6,28.37,SE,143,7.0,19.0,27,0.00,,,4.80,WUHU216DAVISWMX,2013-05-02 20:08:00,
2013-05-02 16:13:00,64.5,31.3,28.38,South,169,11.0,17.0,29,0.00,,,4.80,WUHU216DAVISWMX,2013-05-02 20:13:00,
2013-05-02 16:18:00,64.7,29.8,28.38,SSE,161,15.0,23.0,27,0.00,,,4.80,WUHU216DAVISWMX,2013-05-02 20:18:00,
2013-05-02 16:23:00,64.4,29.5,28.38,SE,126,19.0,23.0,27,0.00,,,4.80,WUHU216DAVISWMX,2013-05-02 20:23:00,
2013-05-02 16:28:00,64.2,29.3,28.38,SSE,165,14.0,19.0,27,0.00,,,4.80,WUHU216DAVISWMX,2013-05-02 20:28:00,
2013-05-02 16:33:00,64.3,29.4,28.38,SSE,163,8.0,19.0,27,0.00,,,4.80,WUHU216DAVISWMX,2013-05-02 20:33:00,
2013-05-02 16:38:00,64.2,29.3,28.37,SSE,163,7.0,17.0,27,0.00,,,4.80,WUHU216DAVISWMX,2013-05-02 20:38:00,
2013-05-02 16:43:00,64.3,29.4,28.37,ESE,117,26.0,26.0,27,0.00,,,4.80,WUHU216DAVISWMX,2013-05-02 20:43:00,
2013-05-02 16:48:00,64.2,29.3,28.38,SSE,155,18.0,26.0,27,0.00,,,4.80,WUHU216DAVISWMX,2013-05-02 20:48:00,
2013-05-02 16:53:00,64.1,29.3,28.38,SSE,158,25.0,25.0,27,0.00,,,4.80,WUHU216DAVISWMX,2013-05-02 20:53:00,
2013-05-02 16:58:00,64.0,29.2,28.37,South,187,11.0,25.0,27,0.00,,,4.80,WUHU216DAVISWMX,2013-05-02 20:58:00,
2013-05-02 17:03:00,64.2,29.3,28.37,South,173,14.0,20.0,27,0.00,,,4.80,WUHU216DAVISWMX,2013-05-02 21:03:00,
2013-05-02 17:08:00,64.2,29.3,28.37,South,180,13.0,21.0,27,0.00,,,4.80,WUHU216DAVISWMX,2013-05-02 21:08:00,
2013-05-02 17:13:00,63.8,29.0,28.37,SSW,194,4.0,21.0,27,0.00,,,4.80,WUHU216DAVISWMX,2013-05-02 21:13:00,
2013-05-02 17:18:00,63.7,28.9,28.36,SSE,168,10.0,23.0,27,0.00,,,4.80,WUHU216DAVISWMX,2013-05-02 21:18:00,
2013-05-02 17:23:00,63.9,29.1,28.36,SSW,192,9.0,24.0,27,0.00,,,4.80,WUHU216DAVISWMX,2013-05-02 21:23:00,
2013-05-02 17:28:00,63.7,29.8,28.36,SE,131,5.0,24.0,28,0.00,,,4.80,WUHU216DAVISWMX,2013-05-02 21:28:00,
2013-05-02 17:33:00,63.9,30.0,28.36,SE,140,3.0,17.0,28,0.00,,,4.80,WUHU216DAVISWMX,2013-05-02 21:33:00,
2013-05-02 17:38:00,63.7,30.6,28.36,SE,145,13.0,19.0,29,0.00,,,4.80,WUHU216DAVISWMX,2013-05-02 21:38:00,
2013-05-02 17:43:00,63.4,30.4,28.36,SSE,162,18.0,24.0,29,0.00,,,4.80,WUHU216DAVISWMX,2013-05-02 21:43:00,
2013-05-02 17:48:00,63.2,30.2,28.36,SSE,164,14.0,27.0,29,0.00,,,4.80,WUHU216DAVISWMX,2013-05-02 21:48:00,
2013-05-02 17:53:00,63.2,31.8,28.36,South,181,4.0,27.0,31,0.00,,,4.80,WUHU216DAVISWMX,2013-05-02 21:53:00,
2013-05-02 17:58:00,63.2,31.8,28.35,South,171,17.0,18.0,31,0.00,,,4.80,WUHU216DAVISWMX,2013-05-02 21:58:00,
2013-05-02 18:03:00,63.1,32.5,28.35,South,191,17.0,21.0,32,0.00,,,4.80,WUHU216DAVISWMX,2013-05-02 22:03:00,
2013-05-02 18:08:00,62.8,32.3,28.36,South,175,18.0,25.0,32,0.00,,,4.80,WUHU216DAVISWMX,2013-05-02 22:08:00,
2013-05-02 18:13:00,62.8,32.3,28.35,South,182,21.0,25.0,32,0.00,,,4.80,WUHU216DAVISWMX,2013-05-02 22:13:00,
2013-05-02 18:18:00,62.8,32.3,28.35,South,172,12.0,24.0,32,0.00,,,4.80,WUHU216DAVISWMX,2013-05-02 22:18:00,
2013-05-02 18:23:00,62.5,32.8,28.35,SSE,150,16.0,24.0,33,0.00,,,4.80,WUHU216DAVISWMX,2013-05-02 22:23:00,
2013-05-02 18:28:00,62.3,32.6,28.36,SSE,152,0.0,21.0,33,0.00,,,4.80,WUHU216DAVISWMX,2013-05-02 22:28:00,
2013-05-02 18:33:00,62.2,32.5,28.35,South,172,14.0,21.0,33,0.00,,,4.80,WUHU216DAVISWMX,2013-05-02 22:33:00,
2013-05-02 18:38:00,62.0,32.3,28.35,SSE,153,5.0,25.0,33,0.00,,,4.80,WUHU216DAVISWMX,2013-05-02 22:38:00,
2013-05-02 18:43:00,62.0,32.3,28.36,SE,137,15.0,25.0,33,0.00,,,4.80,WUHU216DAVISWMX,2013-05-02 22:43:00,
2013-05-02 18:48:00,62.1,32.4,28.36,SSW,192,12.0,22.0,33,0.00,,,4.80,WUHU216DAVISWMX,2013-05-02 22:48:00,
2013-05-02 18:53:00,61.9,32.3,28.36,SSW,200,9.0,22.0,33,0.00,,,4.80,WUHU216DAVISWMX,2013-05-02 22:53:00,
2013-05-02 18:58:00,61.9,32.3,28.35,SSE,165,13.0,22.0,33,0.00,,,4.80,WUHU216DAVISWMX,2013-05-02 22:58:00,
2013-05-02 19:03:00,61.7,31.3,28.35,South,178,23.0,23.0,32,0.00,,,4.80,WUHU216DAVISWMX,2013-05-02 23:03:00,
2013-05-02 19:08:00,61.5,30.4,28.35,SSW,205,5.0,23.0,31,0.00,,,4.80,WUHU216DAVISWMX,2013-05-02 23:08:00,
2013-05-02 19:13:00,61.3,30.2,28.36,SSE,156,14.0,21.0,31,0.00,,,4.80,WUHU216DAVISWMX,2013-05-02 23:13:00,
2013-05-02 19:18:00,61.0,31.5,28.36,SE,136,16.0,19.0,33,0.00,,,4.80,WUHU216DAVISWMX,2013-05-02 23:18:00,
2013-05-02 19:24:00,60.7,31.2,28.36,SE,126,14.0,16.0,33,0.00,,,4.80,WUHU216DAVISWMX,2013-05-02 23:24:00,
2013-05-02 19:29:00,60.5,31.0,28.36,SSE,155,12.0,16.0,33,0.00,,,4.80,WUHU216DAVISWMX,2013-05-02 23:29:00,
2013-05-02 19:34:00,60.2,31.5,28.36,ESE,114,0.0,16.0,34,0.00,,,4.80,WUHU216DAVISWMX,2013-05-02 23:34:00,
2013-05-02 19:39:00,60.0,31.3,28.36,SE,144,15.0,15.0,34,0.00,,,4.80,WUHU216DAVISWMX,2013-05-02 23:39:00,
2013-05-02 19:44:00,60.0,31.3,28.36,SE,127,1.0,15.0,34,0.00,,,4.80,WUHU216DAVISWMX,2013-05-02 23:44:00,
2013-05-02 19:49:00,59.5,30.9,28.36,SE,141,0.0,13.0,34,0.00,,,4.80,WUHU216DAVISWMX,2013-05-02 23:49:00,
2013-05-02 19:54:00,59.4,30.8,28.36,SSE,164,0.0,11.0,34,0.00,,,4.80,WUHU216DAVISWMX,2013-05-02 23:54:00,
2013-05-02 19:59:00,59.5,30.9,28.36,SE,136,0.0,13.0,34,0.00,,,4.80,WUHU216DAVISWMX,2013-05-02 23:59:00,
2013-05-02 20:04:00,59.5,30.9,28.36,SE,136,0.0,13.0,34,0.00,,,4.80,WUHU216DAVISWMX,2013-05-03 00:04:00,
2013-05-02 20:09:00,59.5,30.9,28.35,SE,127,0.0,9.0,34,0.00,,,4.80,WUHU216DAVISWMX,2013-05-03 00:09:00,
2013-05-02 20:14:00,58.7,30.2,28.35,SE,140,0.0,14.0,34,0.00,,,4.80,WUHU216DAVISWMX,2013-05-03 00:14:00,
2013-05-02 20:19:00,58.7,30.2,28.35,ESE,118,0.0,18.0,34,0.00,,,4.80,WUHU216DAVISWMX,2013-05-03 00:19:00,
2013-05-02 20:24:00,58.7,30.2,28.35,ESE,118,0.0,18.0,34,0.00,,,4.80,WUHU216DAVISWMX,2013-05-03 00:24:00,
2013-05-02 20:29:00,58.7,30.2,28.36,ESE,118,0.0,0.0,34,0.00,,,4.80,WUHU216DAVISWMX,2013-05-03 00:29:00,
2013-05-02 20:34:00,58.7,30.2,28.36,ESE,118,0.0,0.0,34,0.00,,,4.80,WUHU216DAVISWMX,2013-05-03 00:34:00,
2013-05-02 20:39:00,58.7,30.2,28.36,ESE,118,0.0,0.0,34,0.00,,,4.80,WUHU216DAVISWMX,2013-05-03 00:39:00,
2013-05-02 20:44:00,58.7,30.2,28.36,ESE,118,0.0,0.0,34,0.00,,,4.80,WUHU216DAVISWMX,2013-05-03 00:44:00,
2013-05-02 20:49:00,58.7,30.2,28.36,ESE,118,0.0,0.0,34,0.00,,,4.80,WUHU216DAVISWMX,2013-05-03 00:49:00,
2013-05-02 20:54:00,58.7,30.2,28.36,ESE,118,0.0,0.0,34,0.00,,,4.80,WUHU216DAVISWMX,2013-05-03 00:54:00,
2013-05-02 22:27:00,54.1,36.4,28.37,SW,227,0.0,0.0,51,0.00,,,4.80,WUHU216DAVISWMX,2013-05-03 02:27:00,
2013-05-02 22:32:00,54.0,36.8,28.37,WSW,242,0.0,2.0,52,0.00,,,4.80,WUHU216DAVISWMX,2013-05-03 02:32:00,
2013-05-02 22:37:00,54.0,36.3,28.37,SSW,195,0.0,8.0,51,0.00,,,4.80,WUHU216DAVISWMX,2013-05-03 02:37:00,
2013-05-02 22:42:00,53.9,36.7,28.37,South,182,0.0,8.0,52,0.00,,,4.80,WUHU216DAVISWMX,2013-05-03 02:42:00,
2013-05-02 22:47:00,53.8,36.6,28.37,SSW,193,0.0,14.0,52,0.00,,,4.80,WUHU216DAVISWMX,2013-05-03 02:47:00,
2013-05-02 22:52:00,53.9,36.2,28.38,South,171,0.0,14.0,51,0.00,,,4.80,WUHU216DAVISWMX,2013-05-03 02:52:00,
2013-05-02 22:57:00,53.9,35.7,28.38,SSW,198,0.0,9.0,50,0.00,,,4.80,WUHU216DAVISWMX,2013-05-03 02:57:00,
2013-05-02 23:02:00,53.9,36.2,28.38,SSW,198,0.0,9.0,51,0.00,,,4.80,WUHU216DAVISWMX,2013-05-03 03:02:00,
2013-05-02 23:07:00,53.9,36.2,28.37,South,180,0.0,0.0,51,0.00,,,4.80,WUHU216DAVISWMX,2013-05-03 03:07:00,
2013-05-02 23:12:00,53.8,36.1,28.37,South,180,0.0,0.0,51,0.00,,,4.80,WUHU216DAVISWMX,2013-05-03 03:12:00,
2013-05-02 23:17:00,53.9,36.2,28.37,South,180,0.0,0.0,51,0.00,,,4.80,WUHU216DAVISWMX,2013-05-03 03:17:00,
2013-05-02 23:22:00,53.9,36.2,28.37,South,180,0.0,0.0,51,0.00,,,4.80,WUHU216DAVISWMX,2013-05-03 03:22:00,
2013-05-02 23:27:00,53.0,36.3,28.37,South,186,11.0,11.0,53,0.00,,,4.80,WUHU216DAVISWMX,2013-05-03 03:27:00,
2013-05-02 23:32:00,53.0,36.8,28.36,SSE,165,0.0,11.0,54,0.00,,,4.80,WUHU216DAVISWMX,2013-05-03 03:32:00,
2013-05-02 23:37:00,52.9,36.7,28.37,SSW,202,0.0,8.0,54,0.00,,,4.80,WUHU216DAVISWMX,2013-05-03 03:37:00,
2013-05-02 23:42:00,52.9,36.7,28.36,South,171,0.0,4.0,54,0.00,,,4.80,WUHU216DAVISWMX,2013-05-03 03:42:00,
2013-05-02 23:47:00,52.8,36.6,28.37,South,171,0.0,2.0,54,0.00,,,4.80,WUHU216DAVISWMX,2013-05-03 03:47:00,
2013-05-02 23:52:00,52.8,36.6,28.37,South,171,0.0,0.0,54,0.00,,,4.80,WUHU216DAVISWMX,2013-05-03 03:52:00,
2013-05-02 23:57:00,52.9,36.7,28.37,South,171,0.0,0.0,54,0.00,,,4.80,WUHU216DAVISWMX,2013-05-03 03:57:00,